Weather History for Dyersburg, TN

Change the Weather History Date:

Tuesday, September 10, 2013

  Actual Average Record
Temperature  
Mean Temperature 83 °F -  
Max Temperature 93 °F 81 °F 93 °F (2002)
Min Temperature 73 °F 61 °F 51 °F (1998)
Cooling Degree Days 18    
Growing Degree Days 33 (Base 50)    
Moisture  
Dew Point 61 °F    
Average Humidity 53    
Maximum Humidity 61    
Minimum Humidity 38    
Precipitation  
Precipitation 0.23 in - - ()
Sea Level Pressure  
Sea Level Pressure 30.10 in    
Wind  
Wind Speed 3 mph (SSE)    
Max Wind Speed 15 mph    
Max Gust Speed 24 mph    
Visibility 10 miles    
Events Thunderstorm    
Averages and records for this station are not official NWS values.
T = Trace of Precipitation, MM = Missing Value Source: NWS Daily Summary

Daily Weather History Graph

Daily Weather History Graph

Search for Another Location

Airport:

Trip Planner

Search our weather history database for the weather conditions in past years. The results will help you decide how hot, cold, wet, or windy it might be!

Date:

Astronomy

Sep. 10, 2013 Rise Set
Actual Time 6:36 AM CDT 7:11 PM CDT
Civil Twilight 6:10 AM CDT 7:37 PM CDT
Nautical Twilight 5:40 AM CDT 8:07 PM CDT
Astronomical Twilight 5:09 AM CDT 8:39 PM CDT
Moon 11:50 AM CDT (9/10) 10:26 PM CDT (9/10)
Length of Visible Light 13h 26m
Length of Day
12h 35m
Waxing Crescent, 28% of the Moon is Illuminated
Sep 10
Waxing Crescent
Sep 12
First Quarter
Sep 19
Full
Sep 26
Last Quarter
Oct 4
New

Hourly Weather History & Observations

Time (CDT) Temp. Heat Index Dew Point Humidity Pressure Visibility Wind Dir Wind Speed Gust Speed Precip Events Conditions
12:15 AM 78.8 °F - 60.8 °F 54% 30.04 in 10.0 mi South 3.5 mph - N/A   Clear
12:35 AM 78.8 °F - 60.8 °F 54% 30.04 in 10.0 mi South 5.8 mph - N/A   Clear
12:55 AM 78.8 °F - 60.8 °F 54% 30.04 in 10.0 mi SE 4.6 mph - N/A   Clear
1:15 AM 78.8 °F - 60.8 °F 54% 30.05 in 10.0 mi South 4.6 mph - N/A   Clear
1:35 AM 77.0 °F - 60.8 °F 57% 30.05 in 10.0 mi Calm Calm - N/A   Clear
1:55 AM 77.0 °F - 60.8 °F 57% 30.05 in 10.0 mi SSE 3.5 mph - N/A   Clear
2:15 AM 77.0 °F - 60.8 °F 57% 30.05 in 10.0 mi SSE 4.6 mph - N/A   Clear
2:35 AM 77.0 °F - 60.8 °F 57% 30.06 in 10.0 mi South 4.6 mph - N/A   Mostly Cloudy
2:55 AM 77.0 °F - 60.8 °F 57% 30.06 in 10.0 mi South 4.6 mph - N/A   Overcast
3:15 AM 77.0 °F - 60.8 °F 57% 30.06 in 10.0 mi SSE 3.5 mph - N/A   Overcast
3:35 AM 75.2 °F - 60.8 °F 61% 30.06 in 10.0 mi South 3.5 mph - N/A   Overcast
3:55 AM 75.2 °F - 60.8 °F 61% 30.06 in 10.0 mi Calm Calm - N/A   Scattered Clouds
4:15 AM 75.2 °F - 60.8 °F 61% 30.06 in 10.0 mi South 4.6 mph - N/A   Clear
4:35 AM 75.2 °F - 60.8 °F 61% 30.07 in 10.0 mi South 3.5 mph - N/A   Clear
4:55 AM 75.2 °F - 59.0 °F 57% 30.08 in 10.0 mi Calm Calm - N/A   Scattered Clouds
5:15 AM 75.2 °F - 59.0 °F 57% 30.08 in 10.0 mi Calm Calm - N/A   Mostly Cloudy
5:35 AM 73.4 °F - 59.0 °F 61% 30.08 in 10.0 mi Calm Calm - N/A   Partly Cloudy
5:55 AM 73.4 °F - 59.0 °F 61% 30.09 in 10.0 mi East 3.5 mph - N/A   Partly Cloudy
6:15 AM 73.4 °F - 57.2 °F 57% 30.10 in 10.0 mi Calm Calm - N/A   Mostly Cloudy
6:35 AM 73.4 °F - 59.0 °F 61% 30.10 in 9.0 mi ESE 5.8 mph - N/A   Overcast
6:55 AM 73.4 °F - 57.2 °F 57% 30.11 in 10.0 mi ESE 3.5 mph - N/A   Scattered Clouds
7:15 AM 73.4 °F - 57.2 °F 57% 30.12 in 10.0 mi Calm Calm - N/A   Clear
7:35 AM 75.2 °F - 59.0 °F 57% 30.12 in 10.0 mi Calm Calm - N/A   Clear
7:55 AM 75.2 °F - 59.0 °F 57% 30.12 in 10.0 mi Calm Calm - N/A   Clear
8:15 AM 77.0 °F - 60.8 °F 57% 30.12 in 10.0 mi SE 4.6 mph - N/A   Clear
8:35 AM 78.8 °F - 60.8 °F 54% 30.13 in 10.0 mi SSE 3.5 mph - N/A   Clear
8:55 AM 80.6 °F 81.5 °F 60.8 °F 51% 30.13 in 10.0 mi Calm Calm - N/A   Clear
9:15 AM 82.4 °F 83.4 °F 62.6 °F 51% 30.13 in 10.0 mi South 4.6 mph - N/A   Clear
9:35 AM 82.4 °F 83.4 °F 62.6 °F 51% 30.14 in 10.0 mi SSE 4.6 mph - N/A   Clear
9:55 AM 84.2 °F 85.0 °F 62.6 °F 48% 30.14 in 10.0 mi Calm Calm - N/A   Clear
10:15 AM 86.0 °F 87.3 °F 64.4 °F 48% 30.14 in 8.0 mi Calm Calm - N/A   Clear
10:35 AM 86.0 °F 87.3 °F 64.4 °F 48% 30.14 in 10.0 mi Calm Calm - N/A   Clear
10:55 AM 87.8 °F 89.4 °F 64.4 °F 46% 30.14 in 10.0 mi Calm Calm - N/A   Scattered Clouds
11:15 AM 87.8 °F 89.4 °F 64.4 °F 46% 30.14 in 10.0 mi Calm Calm - N/A   Mostly Cloudy
11:35 AM 87.8 °F 89.4 °F 64.4 °F 46% 30.14 in 10.0 mi Calm Calm - N/A   Scattered Clouds
11:55 AM 91.4 °F 93.2 °F 64.4 °F 41% 30.13 in 10.0 mi Calm Calm - N/A   Partly Cloudy
12:15 PM 91.4 °F 93.2 °F 64.4 °F 41% 30.13 in 10.0 mi Calm Calm - N/A   Clear
12:35 PM 93.2 °F 94.9 °F 64.4 °F 38% 30.13 in 10.0 mi SW 3.5 mph - N/A   Clear
12:55 PM 93.2 °F 94.9 °F 64.4 °F 38% 30.13 in 10.0 mi Calm Calm - N/A   Clear
1:15 PM 93.2 °F 94.9 °F 64.4 °F 38% 30.12 in 10.0 mi SE 4.6 mph - N/A   Partly Cloudy
1:35 PM 93.2 °F 96.2 °F 66.2 °F 41% 30.11 in 10.0 mi West 3.5 mph - N/A   Partly Cloudy
1:55 PM 91.4 °F 93.2 °F 64.4 °F 41% 30.10 in 10.0 mi West 3.5 mph - N/A   Clear
2:15 PM 91.4 °F 93.2 °F 64.4 °F 41% 30.09 in 10.0 mi West 3.5 mph - N/A   Partly Cloudy
2:35 PM 91.4 °F 93.2 °F 64.4 °F 41% 30.08 in 10.0 mi WNW 4.6 mph - N/A   Clear
2:55 PM 93.2 °F 94.9 °F 64.4 °F 38% 30.08 in 10.0 mi Calm Calm - N/A   Clear
3:15 PM 93.2 °F 94.9 °F 64.4 °F 38% 30.08 in 10.0 mi NNW 3.5 mph - N/A   Clear
3:35 PM 93.2 °F 94.9 °F 64.4 °F 38% 30.07 in 10.0 mi NE 4.6 mph - N/A   Clear
3:55 PM 91.4 °F 93.2 °F 64.4 °F 41% 30.07 in 10.0 mi East 5.8 mph - N/A   Clear
4:15 PM 91.4 °F 93.2 °F 64.4 °F 41% 30.07 in 10.0 mi ENE 8.1 mph - N/A   Clear
4:55 PM 87.8 °F 89.4 °F 64.4 °F 46% 30.08 in 8.0 mi ESE 15.0 mph 24.2 mph N/A Thunderstorm Mostly Cloudy
5:15 PM 80.6 °F 81.1 °F 59.0 °F 48% 30.11 in 10.0 mi SSE 12.7 mph 21.9 mph N/A Thunderstorm Thunderstorm
5:35 PM 75.2 °F - 60.8 °F 61% 30.10 in 8.0 mi South 12.7 mph 19.6 mph N/A Thunderstorm Thunderstorm
5:55 PM 77.0 °F - 60.8 °F 57% 30.11 in 9.0 mi SE 9.2 mph 16.1 mph 0.23 in   Mostly Cloudy
6:15 PM 77.0 °F - 60.8 °F 57% 30.10 in 10.0 mi South 5.8 mph - N/A   Scattered Clouds
6:35 PM 78.8 °F - 60.8 °F 54% 30.10 in 10.0 mi ESE 4.6 mph - N/A   Clear
6:55 PM 78.8 °F - 60.8 °F 54% 30.10 in 10.0 mi SE 3.5 mph - N/A   Clear
7:15 PM 78.8 °F - 60.8 °F 54% 30.11 in 10.0 mi SE 5.8 mph - N/A   Clear
7:35 PM 77.0 °F - 60.8 °F 57% 30.12 in 10.0 mi SE 4.6 mph - N/A   Clear
7:55 PM 77.0 °F - 60.8 °F 57% 30.12 in 10.0 mi ESE 4.6 mph - N/A   Clear
8:15 PM 77.0 °F - 60.8 °F 57% 30.13 in 10.0 mi SE 4.6 mph - N/A   Clear
8:35 PM 75.2 °F - 60.8 °F 61% 30.13 in 10.0 mi SE 3.5 mph - N/A   Clear
8:55 PM 75.2 °F - 60.8 °F 61% 30.14 in 10.0 mi SSE 5.8 mph - N/A   Clear
9:15 PM 75.2 °F - 60.8 °F 61% 30.14 in 10.0 mi SE 4.6 mph - N/A   Clear
9:35 PM 75.2 °F - 59.0 °F 57% 30.14 in 10.0 mi SE 4.6 mph - N/A   Clear
9:55 PM 75.2 °F - 59.0 °F 57% 30.14 in 10.0 mi Calm Calm - N/A   Clear
10:15 PM 75.2 °F - 59.0 °F 57% 30.15 in 10.0 mi Calm Calm - N/A   Clear
10:35 PM 75.2 °F - 59.0 °F 57% 30.14 in 10.0 mi ESE 3.5 mph - N/A   Clear
10:55 PM 73.4 °F - 59.0 °F 61% 30.14 in 10.0 mi SE 5.8 mph - N/A   Clear
11:15 PM 73.4 °F - 59.0 °F 61% 30.14 in 10.0 mi SSE 3.5 mph - N/A   Clear
11:55 PM 73.4 °F - 57.2 °F 57% 30.14 in 10.0 mi Calm Calm - N/A   Clear